Terminal Aerodrome Forecast
Issued by NWS Houston/Galveston, TX

Home | Current Version | Previous Version | Text Only | Print | Product List | Glossary On
Versions: 1 2 3 4 5 6 7 8 9 10 11 12 13 14 15 16 17 18 19 20 21 22 23 24 25 26 27 28 29 30 31 32 33 34 35 36 37 38 39 40
000
FTUS44 KHGX 202324
TAFCLL
TAF
KCLL 202324Z 2100/2124 05005KT P6SM OVC012
     FM211800 15006KT P6SM BKN015 BKN025
     FM212000 17007KT P6SM SCT015 SCT060=

USA.gov is the U.S. government's official web portal to all federal, state and local government web resources and services.